TimeCST,TemperatureF,Dew PointF,Humidity,Sea Level PressureIn,VisibilityMPH,Wind Direction,Wind SpeedMPH,Gust SpeedMPH,PrecipitationIn,Events,Conditions,WindDirDegrees,DateUTC
12:53 AM,21.9,19.0,89,29.95,7.0,Calm,Calm,-,N/A,,Clear,0,2013-02-13 06:53:00
1:53 AM,21.0,18.0,88,29.94,5.0,Calm,Calm,-,N/A,,Clear,0,2013-02-13 07:53:00
2:53 AM,21.9,19.9,92,29.93,5.0,Calm,Calm,-,N/A,,Clear,0,2013-02-13 08:53:00
3:53 AM,21.0,18.0,88,29.91,4.0,Calm,Calm,-,N/A,,Clear,0,2013-02-13 09:53:00
4:53 AM,19.9,18.0,92,29.88,4.0,Calm,Calm,-,N/A,,Clear,0,2013-02-13 10:53:00
5:53 AM,23.0,19.9,88,29.86,5.0,SSE,4.6,-,N/A,,Clear,160,2013-02-13 11:53:00
6:53 AM,23.0,21.0,92,29.85,4.0,SSE,4.6,-,N/A,,Clear,160,2013-02-13 12:53:00
7:53 AM,24.1,21.9,91,29.85,4.0,South,5.8,-,N/A,,Clear,190,2013-02-13 13:53:00
8:53 AM,28.9,27.0,92,29.85,4.0,South,6.9,-,N/A,,Clear,190,2013-02-13 14:53:00
9:53 AM,34.0,28.0,79,29.84,7.0,SSW,10.4,-,N/A,,Clear,200,2013-02-13 15:53:00
10:53 AM,37.9,28.9,70,29.83,8.0,SSW,11.5,-,N/A,,Clear,200,2013-02-13 16:53:00
11:53 AM,39.9,28.9,65,29.80,9.0,SW,11.5,-,N/A,,Clear,220,2013-02-13 17:53:00
12:53 PM,43.0,30.0,60,29.77,10.0,SSW,11.5,-,N/A,,Clear,200,2013-02-13 18:53:00
1:53 PM,45.0,28.0,52,29.75,10.0,SW,12.7,23.0,N/A,,Clear,230,2013-02-13 19:53:00
2:53 PM,45.0,28.9,53,29.75,10.0,WSW,17.3,24.2,N/A,,Clear,240,2013-02-13 20:53:00
3:53 PM,44.1,32.0,63,29.75,10.0,SW,13.8,20.7,N/A,,Clear,230,2013-02-13 21:53:00
4:53 PM,42.1,30.9,65,29.76,10.0,WSW,6.9,-,N/A,,Clear,240,2013-02-13 22:53:00
5:53 PM,39.0,30.0,70,29.78,10.0,WSW,8.1,-,N/A,,Clear,240,2013-02-13 23:53:00
6:53 PM,37.0,28.9,73,29.79,10.0,WSW,8.1,-,N/A,,Clear,240,2013-02-14 00:53:00
7:53 PM,34.0,28.0,79,29.80,10.0,WSW,6.9,-,N/A,,Clear,240,2013-02-14 01:53:00
8:53 PM,33.1,28.0,82,29.80,9.0,SW,4.6,-,N/A,,Clear,230,2013-02-14 02:53:00
9:53 PM,33.1,28.9,85,29.79,8.0,SSW,5.8,-,N/A,,Overcast,210,2013-02-14 03:53:00
10:53 PM,34.0,30.0,85,29.79,8.0,SSW,5.8,-,N/A,,Overcast,210,2013-02-14 04:53:00
11:53 PM,34.0,30.0,85,29.79,8.0,SSW,5.8,-,N/A,,Overcast,210,2013-02-14 05:53:00